Date,TemperatureHighF,TemperatureAvgF,TemperatureLowF,DewpointHighF,DewpointAvgF,DewpointLowF,HumidityHigh,HumidityAvg,HumidityLow,PressureMaxIn,PressureMinIn,WindSpeedMaxMPH,WindSpeedAvgMPH,GustSpeedMaxMPH,PrecipitationSumIn
2013-3-1,39.9,37.7,35.5,28.5,26.3,23.8,71,63,57,29.91,29.80,8,2,15,0.00
2013-3-2,36.9,33.6,30.0,25.2,21.4,17.9,66,61,55,29.92,29.84,8,2,13,0.00
2013-3-3,34.2,29.8,27.2,19.7,17.1,13.1,66,59,51,29.97,29.88,10,3,20,0.00
2013-3-4,50.2,34.7,26.0,20.2,14.2,10.7,64,45,23,30.08,29.96,9,2,17,0.00
2013-3-5,50.9,38.5,31.5,36.6,28.5,17.8,97,69,41,30.06,29.64,3,0,6,0.56
2013-3-6,41.3,35.8,31.5,32.3,29.4,26.9,97,78,63,30.08,29.60,11,2,21,0.63
2013-3-7,43.5,38.5,36.3,29.9,27.5,25.0,73,65,52,30.25,30.07,10,3,20,0.00
2013-3-8,50.2,41.3,34.9,27.8,25.5,21.8,70,54,39,30.34,30.20,10,2,16,0.00
2013-3-9,63.7,43.0,26.6,34.0,28.6,23.8,90,61,30,30.37,30.24,4,0,6,0.00
2013-3-10,67.4,48.1,30.6,37.4,32.4,27.4,88,58,31,30.31,30.18,4,0,7,0.00
2013-3-11,58.9,50.6,40.6,52.5,37.7,27.4,90,62,40,30.20,29.87,6,0,14,0.04
2013-3-12,55.9,51.1,40.6,53.7,42.4,30.1,98,74,46,30.00,29.73,14,2,23,0.74
2013-3-13,44.2,39.3,31.4,31.1,25.4,16.1,76,58,39,30.15,29.98,13,3,27,0.00
2013-3-14,48.3,36.6,28.0,19.6,16.8,14.5,64,46,27,30.24,30.12,10,3,20,0.00
2013-3-15,63.4,48.0,30.1,37.3,27.7,15.2,68,46,37,30.16,29.86,9,2,18,0.00
2013-3-16,76.4,58.1,41.1,53.6,44.7,34.8,94,64,38,29.86,29.60,16,2,27,0.06
2013-3-17,58.4,44.0,35.8,50.2,41.6,34.8,96,91,74,30.20,29.86,2,0,4,0.60
2013-3-18,35.9,33.8,32.0,34.9,32.7,30.7,97,96,95,30.21,29.88,4,0,6,0.30
2013-3-19,59.3,45.3,33.3,43.6,24.4,0.5,99,55,12,30.04,29.79,16,4,29,0.00
2013-3-20,53.4,42.9,30.7,26.9,13.1,3.6,60,31,18,30.07,29.78,12,2,25,0.00
2013-3-21,39.6,31.0,25.7,28.0,15.0,9.4,69,52,37,29.98,29.77,12,3,22,0.00
2013-3-22,50.0,34.2,23.7,19.7,13.6,9.3,60,44,25,30.04,29.93,9,2,18,0.00
2013-3-23,57.2,41.4,27.8,30.3,23.7,17.4,71,52,30,30.05,29.90,6,0,10,0.00
2013-3-24,40.8,34.7,31.3,32.4,28.8,23.0,95,80,49,29.96,29.59,2,0,6,0.01
2013-3-25,41.7,35.2,30.7,32.0,28.2,23.2,96,77,50,29.77,29.52,11,2,22,0.72
2013-3-26,44.5,38.8,35.5,29.5,26.7,24.9,69,62,49,30.10,29.77,9,2,20,0.15
2013-3-27,45.6,38.2,34.1,27.9,25.0,22.4,69,59,45,30.22,30.10,8,2,16,0.00
2013-3-28,50.9,41.5,35.7,28.6,25.1,21.3,74,53,38,30.28,30.19,9,2,14,0.00
2013-3-29,59.9,44.2,30.7,29.0,26.3,24.3,80,52,28,30.31,30.16,8,1,15,0.00
2013-3-30,65.6,47.8,30.5,34.4,30.3,26.8,87,55,27,30.26,30.07,6,0,9,0.00
2013-3-31,61.3,49.4,41.8,51.8,43.0,32.1,97,80,56,30.08,29.78,10,0,16,0.21